Location: ???????
(38.3360°N, 23.6977°E)
Time: 05:58:41
(UTC+00:00)

PSLV R/B - Pass Details

Date: 17 November 2025
Orbit: 561 x 589 km, 98.0° (Epoch: 09 December)

Event Time Altitude Azimuth Distance (km) Brightness Sun altitude
Rises 16:08:45 0° 136° (SE) 2,762 6.6 -11.5°
Reaches altitude 10° 16:11:13 10° 121° (ESE) 1,864 5.6 -11.9°
Maximum altitude 16:14:23 23° 69° (ENE) 1,234 4.5 -12.5°
Drops below altitude 10° 16:17:34 10° 17° (NNE) 1,865 5.7 -13.1°
Sets 16:20:02 0° 3° (N) 2,763 6.7 -13.6°
